Find Kosmos-2483

NORAD ID: 39058 Int'l Des: 2013-001 Owner: VVKO Country: RU operational
LEOCIRCULARPOLAR

リアルタイム位置

3D地球を読み込み中...

Kosmos-2483について

説明を読み込み中...

次回通過

Passes for default location (London). Set your location on the main map for personalized predictions.

高度履歴

Loading altitude history...

軌道要素

1 39058U 13001B 26121.87266339 -.00000112 00000-0 -86531-3 0 9998
2 39058 82.4992 243.7654 0017798 113.8428 246.4520 12.44023248595834
Epoch: May 1, 2026 • Age: 5 hours

現在のステータス

高度 1513.7 km
速度 7.10 km/s
衛星直下点 -47.57°S, 178.49°W
打ち上げ日 Jan 15, 2013
運用期間 13.2 years
タイプ other

技術仕様

分類 Payload
質量 280.00 kg
乾燥質量 280.00 kg
総質量 280.00 kg
長さ 1.60 m
直径 0.80 m
スパン 7.00 m
形状 Cyl + Ant
製造者 RESH
バスタイプ Strela-3M
フェーズステータス In Orbit
所有者/国 VVKO/RU

Most Searched